When you browse on this site, cookies collect data to enhance your experience and personalize the content and advertising you see.
Visit our Privacy Policy to learn more. By continuing to use the site, you agree to this use of cookies and data.

Tiempo cada hora Matlock

Hoy, 9 Agosto, Domingo

Tiempo Temperatura Precipitaciones Viento Presión Humedad
00:00 +14°C° 0 mm 5 mps 750 mmHg 88%
01:00 +14°C° 0.2 mm 5 mps 750 mmHg 89%
02:00 +14°C° 0.2 mm 5 mps 750 mmHg 89%
03:00 +14°C° 0.2 mm 5 mps 750 mmHg 90%
04:00 +14°C° 0 mm 5 mps 750 mmHg 90%
05:00 +15°C° 0 mm 5 mps 750 mmHg 90%
06:00 +15°C° 0 mm 4 mps 750 mmHg 88%
07:00 +15°C° 0 mm 4 mps 750 mmHg 87%
08:00 +17°C° 0 mm 4 mps 749 mmHg 87%
09:00 +16°C° 0 mm 5 mps 749 mmHg 86%
10:00 +17°C° 0 mm 5 mps 749 mmHg 84%
11:00 +19°C° 0 mm 5 mps 749 mmHg 83%
12:00 +19°C° 0 mm 4 mps 749 mmHg 81%
13:00 +20°C° 0 mm 4 mps 748 mmHg 80%
14:00 +20°C° 0 mm 4 mps 748 mmHg 79%
15:00 +21°C° 0 mm 4 mps 748 mmHg 77%
16:00 +21°C° 0 mm 4 mps 748 mmHg 79%
17:00 +21°C° 0 mm 4 mps 747 mmHg 81%
18:00 +21°C° 0 mm 4 mps 747 mmHg 82%
19:00 +19°C° 0.2 mm 4 mps 747 mmHg 85%
20:00 +18°C° 0.2 mm 4 mps 747 mmHg 89%
21:00 +17°C° 0.2 mm 4 mps 747 mmHg 92%
22:00 +17°C° 0.1 mm 4 mps 747 mmHg 93%
23:00 +15°C° 0.1 mm 4 mps 747 mmHg 93%

Mañana, 10 Agosto, Lunes

Tiempo Temperatura Precipitaciones Viento Presión Humedad
00:00 +15°C° 0.1 mm 4 mps 747 mmHg 94%
01:00 +15°C° 0.1 mm 4 mps 747 mmHg 94%
02:00 +16°C° 0.1 mm 3 mps 747 mmHg 95%
03:00 +14°C° 0.1 mm 3 mps 746 mmHg 95%
04:00 +14°C° 0 mm 4 mps 746 mmHg 94%
05:00 +14°C° 0 mm 4 mps 746 mmHg 93%
06:00 +15°C° 0 mm 4 mps 746 mmHg 93%
07:00 +17°C° 0 mm 4 mps 746 mmHg 88%
08:00 +18°C° 0 mm 4 mps 746 mmHg 84%
09:00 +19°C° 0 mm 5 mps 746 mmHg 80%
10:00 +21°C° 0 mm 5 mps 746 mmHg 76%
11:00 +22°C° 0 mm 5 mps 746 mmHg 72%
12:00 +25°C° 0 mm 5 mps 746 mmHg 68%
13:00 +25°C° 0 mm 5 mps 746 mmHg 66%
14:00 +26°C° 0 mm 5 mps 745 mmHg 65%
15:00 +27°C° 0 mm 5 mps 745 mmHg 64%
16:00 +26°C° 0.2 mm 5 mps 745 mmHg 68%
17:00 +25°C° 0.2 mm 5 mps 745 mmHg 72%
18:00 +23°C° 0.2 mm 5 mps 745 mmHg 76%
19:00 +22°C° 0.7 mm 4 mps 745 mmHg 81%
20:00 +20°C° 0.7 mm 4 mps 745 mmHg 86%
21:00 +19°C° 0.7 mm 4 mps 745 mmHg 91%
22:00 +19°C° 0.7 mm 4 mps 745 mmHg 92%
23:00 +18°C° 0.7 mm 4 mps 745 mmHg 93%

Pasado mañana, 11 Agosto, Martes

Tiempo Temperatura Precipitaciones Viento Presión Humedad
00:00 +18°C° 0.7 mm 4 mps 745 mmHg 94%
01:00 +18°C° 0.1 mm 4 mps 745 mmHg 94%
02:00 +18°C° 0.1 mm 4 mps 745 mmHg 95%
03:00 +17°C° 0.1 mm 4 mps 745 mmHg 95%
04:00 +18°C° 0 mm 3 mps 745 mmHg 95%
05:00 +18°C° 0 mm 3 mps 744 mmHg 95%
06:00 +18°C° 0 mm 2 mps 744 mmHg 95%
07:00 +19°C° 0 mm 2 mps 745 mmHg 90%
08:00 +21°C° 0 mm 2 mps 745 mmHg 86%
09:00 +24°C° 0 mm 2 mps 745 mmHg 81%
10:00 +25°C° 0 mm 2 mps 745 mmHg 76%
11:00 +26°C° 0 mm 2 mps 745 mmHg 72%
12:00 +28°C° 0 mm 2 mps 745 mmHg 67%
13:00 +29°C° 0.5 mm 2 mps 745 mmHg 64%
14:00 +30°C° 0.5 mm 2 mps 745 mmHg 61%
15:00 +31°C° 0.5 mm 2 mps 745 mmHg 58%
16:00 +30°C° 1.2 mm 2 mps 744 mmHg 62%
17:00 +29°C° 1.2 mm 2 mps 744 mmHg 65%
18:00 +29°C° 1.2 mm 2 mps 744 mmHg 69%
19:00 +27°C° 1.9 mm 2 mps 744 mmHg 76%
20:00 +25°C° 1.9 mm 2 mps 744 mmHg 82%
21:00 +23°C° 1.9 mm 2 mps 745 mmHg 89%
22:00 +21°C° 1.6 mm 2 mps 744 mmHg 90%
23:00 +21°C° 1.6 mm 2 mps 744 mmHg 92%

12 Agosto, Miércoles

Tiempo Temperatura Precipitaciones Viento Presión Humedad
00:00 +21°C° 1.6 mm 2 mps 744 mmHg 93%
01:00 +20°C° 1.2 mm 2 mps 744 mmHg 93%
02:00 +21°C° 1.2 mm 1 mps 744 mmHg 94%
03:00 +18°C° 1.2 mm 0 mps 744 mmHg 94%
04:00 +21°C° 0.1 mm 1 mps 744 mmHg 94%
05:00 +21°C° 0.1 mm 1 mps 743 mmHg 93%
06:00 +21°C° 0.1 mm 1 mps 743 mmHg 93%
07:00 +22°C° 0 mm 1 mps 743 mmHg 89%
08:00 +23°C° 0 mm 2 mps 744 mmHg 86%
09:00 +24°C° 0 mm 2 mps 744 mmHg 82%
10:00 +25°C° 0 mm 1 mps 744 mmHg 78%
11:00 +26°C° 0 mm 1 mps 744 mmHg 74%
12:00 +27°C° 0 mm 1 mps 744 mmHg 69%
13:00 +28°C° 0 mm 1 mps 743 mmHg 67%
14:00 +29°C° 0 mm 1 mps 743 mmHg 65%
15:00 +29°C° 0 mm 1 mps 743 mmHg 62%
16:00 +29°C° 0 mm 2 mps 743 mmHg 66%
17:00 +28°C° 0 mm 2 mps 742 mmHg 69%
18:00 +27°C° 0 mm 3 mps 742 mmHg 72%
19:00 +25°C° 4.8 mm 3 mps 742 mmHg 80%
20:00 +24°C° 4.8 mm 3 mps 742 mmHg 87%
21:00 +21°C° 4.8 mm 3 mps 742 mmHg 94%
22:00 +21°C° 2.5 mm 3 mps 742 mmHg 93%
23:00 +21°C° 2.5 mm 3 mps 742 mmHg 93%

13 Agosto, Jueves

Tiempo Temperatura Precipitaciones Viento Presión Humedad
00:00 +20°C° 2.5 mm 3 mps 741 mmHg 92%
01:00 +20°C° 1.1 mm 3 mps 741 mmHg 93%
02:00 +20°C° 1.1 mm 3 mps 740 mmHg 94%
03:00 +19°C° 1.1 mm 3 mps 740 mmHg 95%
04:00 +19°C° 1.7 mm 3 mps 740 mmHg 95%
05:00 +19°C° 1.7 mm 2 mps 740 mmHg 95%
06:00 +19°C° 1.7 mm 2 mps 739 mmHg 95%
07:00 +20°C° 0.5 mm 2 mps 739 mmHg 93%
08:00 +20°C° 0.5 mm 2 mps 739 mmHg 91%
09:00 +22°C° 0.5 mm 1 mps 739 mmHg 89%
10:00 +22°C° 0 mm 1 mps 739 mmHg 87%
11:00 +23°C° 0 mm 1 mps 739 mmHg 85%
12:00 +23°C° 0 mm 1 mps 739 mmHg 82%
13:00 +24°C° 0.1 mm 1 mps 739 mmHg 80%
14:00 +25°C° 0.1 mm 1 mps 739 mmHg 77%
15:00 +25°C° 0.1 mm 1 mps 739 mmHg 75%
16:00 +24°C° 0.5 mm 1 mps 739 mmHg 78%
17:00 +24°C° 0.5 mm 2 mps 739 mmHg 81%
18:00 +23°C° 0.5 mm 2 mps 738 mmHg 84%
19:00 +21°C° 0.8 mm 2 mps 739 mmHg 86%
20:00 +20°C° 0.8 mm 2 mps 739 mmHg 89%
21:00 +20°C° 0.8 mm 2 mps 739 mmHg 91%
22:00 +19°C° 1.5 mm 2 mps 739 mmHg 92%
23:00 +19°C° 1.5 mm 2 mps 739 mmHg 94%

14 Agosto, Viernes

Tiempo Temperatura Precipitaciones Viento Presión Humedad
00:00 +18°C° 1.5 mm 2 mps 739 mmHg 95%
01:00 +19°C° 1.3 mm 1 mps 738 mmHg 95%
02:00 +19°C° 1.3 mm 1 mps 738 mmHg 95%
03:00 +19°C° 1.3 mm 1 mps 738 mmHg 95%
04:00 +20°C° 0.1 mm 1 mps 738 mmHg 95%
05:00 +20°C° 0.1 mm 1 mps 738 mmHg 94%
06:00 +20°C° 0.1 mm 1 mps 738 mmHg 94%
07:00 +20°C° 0.1 mm 1 mps 738 mmHg 92%
08:00 +19°C° 0.1 mm 2 mps 738 mmHg 91%
09:00 +20°C° 0.1 mm 2 mps 739 mmHg 89%
10:00 +20°C° 0.3 mm 3 mps 739 mmHg 88%
11:00 +20°C° 0.3 mm 3 mps 739 mmHg 87%
12:00 +20°C° 0.3 mm 4 mps 739 mmHg 86%
13:00 +21°C° 0 mm 4 mps 739 mmHg 80%
14:00 +22°C° 0 mm 5 mps 739 mmHg 74%
15:00 +22°C° 0 mm 5 mps 739 mmHg 68%
16:00 +22°C° 0 mm 5 mps 740 mmHg 70%
17:00 +21°C° 0 mm 4 mps 740 mmHg 72%
18:00 +20°C° 0 mm 4 mps 740 mmHg 74%
19:00 +19°C° 0 mm 3 mps 741 mmHg 78%
20:00 +18°C° 0 mm 3 mps 741 mmHg 81%
21:00 +17°C° 0 mm 2 mps 742 mmHg 84%
22:00 +16°C° 0 mm 2 mps 742 mmHg 85%
23:00 +16°C° 0 mm 2 mps 742 mmHg 86%
Mostrar más